Dewpoint
59 51 58 59 56 54 50 45 22 27 26 24 23 25 21 30 28 24 29 37 32 42 50 49 45 46 43 46 43 45 47 45 49 40 40 58 66 66 64 63 66 67 67 69 70 72 73 74 74 73 73 73 73 72 72 72 72 72 72 72 72 71 72 71 71 71 71 70 69 67 67 66 66 66 66 66 66 67 70 71 72 71 70 70 70 69 68 68 67 68 68 68 68 69 69 69 70
55 52 57 56 53 51 36 38 30 26 25 23 23 23 24 24 28 25 27 35 39 46 52 53 48 51 51 51 49 49 47 51 54 55 63 66 65 64 64 66 66 67 67 68 70 71 71 72 74 73 73 73 73 72 72 72 72 72 72 72 72 72 72 71 71 71 71 71 70 68 66 66 66 66 66 66 67 67 69 71 71 71 71 69 69 68 67 67 67 67 68 68 68 69 69 69 69
52 52 52 51 43 40 36 30 21 26 20 19 21 23 24 20 21 26 34 41 45 49 51 48 50 48 47 46 44 43 42 55 62 64 64 66 63 63 65 67 68 68 68 69 70 71 72 72 74 73 73 73 72 72 72 72 72 72 72 72 72 72 72 72 72 71 71 70 70 70 68 66 66 66 66 67 67 67 68 70 71 71 69 69 68 67 67 67 67 67 68 67 68 69 70 71 70
55 52 50 45 38 32 31 27 27 23 20 20 22 23 21 21 23 29 39 45 49 51 49 45 44 48 45 43 46 48 50 50 58 63 63 64 63 64 66 68 69 69 69 69 70 71 72 73 74 73 73 73 72 72 72 72 72 72 72 72 72 72 72 71 70 71 71 70 69 69 69 68 66 66 66 66 66 68 69 69 70 68 68 68 67 67 66 67 67 68 68 68 69 70 69 69 70
45 50 49 35 31 40 30 29 27 24 20 22 20 23 23 22 23 31 40 48 50 48 45 44 45 48 47 45 47 43 50 52 63 63 64 64 66 66 67 68 69 69 69 69 70 70 71 73 73 73 73 73 72 72 72 72 72 73 72 72 72 72 72 71 71 71 71 70 70 70 68 67 67 67 67 66 66 67 69 68 69 67 67 67 67 67 67 67 68 67 68 69 70 69 69 69 69
43 45 47 37 25 33 26 24 25 24 22 24 22 22 23 22 24 29 40 48 49 47 45 43 41 43 44 46 49 47 54 49 59 64 65 64 66 67 67 69 68 68 68 69 70 70 70 73 73 73 73 72 72 72 72 72 72 72 72 72 72 72 72 71 71 71 71 71 70 69 67 67 67 67 67 67 67 67 66 67 69 68 68 67 66 67 68 68 68 68 68 69 69 69 70 70 70
31 33 36 31 30 27 24 23 21 22 23 26 23 23 22 22 24 27 39 45 46 46 47 43 46 44 40 48 50 59 65 64 61 63 64 66 66 68 68 68 68 68 68 69 69 69 69 73 73 73 73 72 72 72 72 72 72 72 72 72 72 72 72 72 71 71 71 70 70 69 67 67 67 67 67 67 67 68 67 69 68 68 68 67 66 67 68 68 68 69 70 70 70 70 70 70 71
42 26 27 25 24 25 22 21 21 23 23 26 26 26 23 23 25 27 30 27 30 35 44 45 47 40 43 53 42 60 66 66 65 66 67 67 67 68 68 68 67 67 67 69 69 69 72 73 73 73 73 73 72 72 72 72 72 72 73 72 72 72 72 72 72 72 71 70 70 69 68 67 67 67 67 67 67 67 68 68 68 68 68 67 67 67 68 68 69 70 70 70 71 70 70 71 71
30 25 27 22 20 25 23 20 18 24 24 25 25 29 41 25 26 26 25 26 25 38 42 44 44 38 41 51 46 59 64 66 66 68 67 67 67 67 67 67 66 66 67 67 69 70 71 73 73 73 73 72 72 72 72 72 72 72 73 72 72 72 72 72 72 72 71 70 70 70 69 67 67 67 67 67 67 67 68 69 69 68 68 67 68 68 68 69 69 69 70 71 70 70 71 71 70
27 25 22 22 21 18 19 19 21 20 22 23 24 25 27 28 26 27 26 25 25 33 35 41 45 33 44 42 48 58 63 66 67 67 67 67 67 68 67 67 67 67 66 67 69 70 71 73 73 73 72 73 72 72 72 72 72 72 72 72 72 72 72 72 72 72 71 71 70 69 69 68 67 67 67 67 67 67 68 69 69 68 68 69 69 69 69 69 70 70 70 70 70 71 71 71 70
22 23 25 20 20 18 17 17 19 21 22 24 25 26 27 29 28 27 26 26 26 26 29 45 39 38 45 41 53 65 66 66 66 66 67 67 67 66 66 67 67 66 67 68 69 70 71 72 73 73 73 73 73 72 72 72 73 73 73 73 73 72 72 72 72 72 71 71 70 70 69 68 67 67 67 67 67 68 68 68 68 68 70 69 69 70 70 70 70 70 70 70 70 71 71 71 71
20 21 20 18 18 18 17 18 18 19 21 23 23 25 27 28 28 27 27 26 27 25 25 38 26 42 39 43 50 65 65 65 65 66 67 67 66 67 66 67 68 67 69 69 69 70 70 70 71 72 72 73 73 72 72 73 73 73 73 73 72 72 72 72 72 72 71 71 70 69 69 68 68 67 67 67 67 69 69 67 68 69 68 69 69 70 70 70 70 70 70 70 70 70 71 71 71
19 21 19 18 17 18 17 17 17 19 19 20 22 24 26 27 26 25 26 25 25 25 25 36 49 43 31 46 61 65 64 65 66 67 67 66 66 66 66 67 67 67 67 68 68 69 69 69 68 70 71 73 73 72 72 73 73 73 73 73 73 72 72 72 72 71 71 71 70 69 68 68 68 67 67 67 67 68 69 68 68 68 68 69 69 70 70 70 70 70 70 70 69 70 71 71 71
20 22 20 16 19 16 16 16 17 18 18 19 22 25 25 24 25 25 25 25 25 24 26 29 47 44 41 51 53 62 64 66 66 66 67 66 66 66 67 67 67 68 67 67 67 68 68 69 68 69 70 72 71 73 72 72 73 73 73 73 72 72 72 72 71 71 71 71 70 69 69 68 67 67 67 67 67 67 69 68 68 68 68 69 69 70 70 70 70 71 70 69 69 70 71 71 71
21 24 21 20 16 17 16 16 16 16 16 19 21 23 22 26 25 25 24 23 24 25 53 42 46 35 36 43 45 55 64 65 66 67 67 67 66 67 66 67 68 67 66 66 66 67 67 67 68 69 71 70 70 71 71 72 72 73 73 73 72 72 72 72 71 71 71 70 70 69 68 67 67 67 67 67 67 67 68 69 68 68 68 69 69 69 70 70 70 70 70 69 69 69 70 71 70
24 21 22 19 15 15 16 16 17 16 16 18 20 23 22 22 23 23 24 23 23 31 53 44 53 29 45 47 55 63 65 65 66 67 67 67 67 67 66 67 66 66 66 67 67 67 67 67 68 69 70 71 71 71 71 71 72 72 72 72 72 72 72 71 71 71 71 70 69 69 68 67 67 66 67 66 67 67 68 67 68 68 67 68 69 69 70 70 70 70 70 69 68 69 70 70 71
23 21 20 18 16 15 16 15 17 15 17 18 20 21 20 20 22 22 23 24 21 36 43 48 50 55 53 57 63 65 65 66 66 66 67 66 66 65 66 66 66 66 66 66 67 67 67 68 68 69 70 71 70 71 71 71 71 72 72 72 72 72 72 71 71 71 71 70 68 68 67 67 68 67 67 65 67 66 68 67 68 67 68 68 69 69 70 70 70 70 70 69 68 69 70 70 70
22 20 18 17 16 15 16 15 16 18 17 18 19 20 19 18 20 20 21 21 21 26 35 55 57 61 61 63 64 65 65 65 66 65 65 65 65 64 64 65 65 65 66 66 66 67 68 68 69 69 70 70 70 70 71 71 71 71 71 71 71 72 71 71 71 70 70 69 68 67 67 67 66 66 67 66 66 67 67 67 67 67 68 68 69 69 69 69 70 70 70 70 68 68 70 68 69
20 22 20 14 15 15 17 17 18 17 16 18 19 20 19 18 19 19 18 19 20 19 30 52 56 60 63 64 64 64 65 65 65 65 65 64 64 64 64 64 64 65 65 65 66 68 68 69 70 69 69 70 70 70 70 70 70 71 71 71 70 71 71 71 70 70 69 68 66 66 68 67 65 66 67 66 66 67 66 68 68 68 68 68 68 69 69 69 70 70 70 69 68 68 68 67 66
23 20 14 14 16 16 18 18 17 17 17 19 18 19 19 19 19 21 18 17 19 18 31 50 48 53 61 63 64 64 64 64 65 65 64 64 64 64 64 64 64 65 65 65 66 68 69 69 70 69 69 70 69 69 70 70 70 71 70 70 70 71 71 70 69 69 69 68 68 67 67 66 66 67 67 68 66 66 66 68 68 69 68 68 69 68 69 69 70 69 69 68 67 68 67 66 64
19 22 16 16 18 15 17 22 21 21 17 17 16 17 18 18 19 18 18 17 17 18 33 40 49 50 60 63 63 64 64 64 65 65 65 64 64 64 64 64 64 64 65 65 66 67 68 69 69 69 69 69 69 69 69 69 70 70 70 70 70 70 70 70 70 70 69 69 68 67 65 66 65 65 66 66 66 66 66 67 67 67 67 67 69 68 68 67 68 66 66 66 65 64 66 67 66
23 18 23 22 21 17 20 24 22 21 18 20 18 16 17 15 16 18 18 17 17 17 32 42 52 53 61 63 63 63 64 64 64 64 64 64 64 64 64 64 65 65 65 65 65 67 68 68 69 69 69 69 69 69 68 69 70 69 69 69 70 69 70 70 69 69 68 68 66 65 65 65 65 64 66 67 66 66 66 66 66 67 67 67 68 67 66 67 66 64 63 62 63 64 66 67 67
17 20 22 22 22 22 24 25 22 20 21 20 20 17 17 13 14 15 15 17 19 22 24 38 48 55 62 64 64 64 64 64 64 64 64 64 64 64 64 64 64 64 65 65 66 66 67 69 69 69 69 70 69 69 69 69 69 69 69 69 69 69 69 69 68 68 68 67 66 66 64 64 64 64 65 66 66 65 65 66 66 66 66 65 67 66 66 66 65 63 63 64 62 62 64 66 66
20 18 20 20 19 23 23 20 21 21 21 21 21 16 18 16 15 16 14 15 16 17 18 28 48 55 63 63 64 64 64 64 65 65 65 65 65 65 65 65 65 65 64 65 65 66 67 68 69 69 69 69 69 69 68 68 69 70 69 70 69 68 69 68 68 68 68 66 66 66 65 64 64 64 64 65 65 65 65 65 66 65 66 67 67 67 65 64 65 67 67 65 61 63 65 66 66
16 17 16 17 17 17 18 18 19 20 22 22 18 20 20 19 19 19 18 17 16 15 16 17 39 60 63 63 64 65 65 65 65 65 66 65 65 66 66 65 65 65 65 65 65 65 66 67 69 69 68 68 68 68 68 68 69 69 69 69 68 70 69 68 68 69 68 65 66 67 67 66 66 66 65 66 66 66 67 67 65 66 67 66 67 67 67 67 68 68 67 65 65 65 65 65 65
15 14 15 16 15 16 17 18 19 20 20 21 20 18 19 20 20 17 18 18 18 17 15 19 48 60 62 64 65 65 65 65 65 65 65 65 66 66 65 64 65 65 65 66 65 65 66 68 68 68 67 68 68 68 68 68 68 69 68 69 68 69 68 68 69 67 67 65 66 67 67 67 67 67 67 67 68 67 67 67 67 66 67 67 67 68 68 68 67 67 66 65 65 65 64 64 65
15 14 15 15 14 17 18 18 18 19 19 20 19 19 19 20 17 15 32 35 20 16 22 42 47 53 62 62 64 65 65 65 65 65 65 65 66 65 65 64 64 64 65 65 66 66 66 67 67 67 67 68 67 67 68 68 68 68 68 68 68 68 69 68 68 66 65 66 67 68 68 68 69 68 68 68 69 68 68 67 68 67 67 68 69 69 69 69 68 67 66 65 65 65 65 65 63
14 14 14 13 16 19 18 19 18 19 15 20 19 18 19 19 17 15 19 37 38 29 40 43 55 44 58 62 63 64 64 65 65 65 65 64 64 65 65 64 64 65 65 65 65 66 67 67 67 67 67 68 68 66 68 67 68 68 68 68 68 68 69 68 68 66 66 67 68 69 69 68 69 70 70 69 69 69 68 67 69 68 68 69 69 68 68 68 68 66 66 67 67 66 65 64 64
14 14 8 13 14 10 16 13 12 17 13 20 20 16 14 14 14 15 17 24 40 40 38 37 46 56 59 61 62 62 62 64 64 64 65 65 65 65 65 65 65 65 66 66 66 66 67 67 66 67 67 68 68 67 67 67 68 68 68 68 68 68 68 68 67 66 66 67 68 69 68 68 69 69 70 70 69 69 69 69 69 69 69 69 69 69 68 69 67 67 67 67 66 65 65 65 62
15 12 12 8 8 4 17 17 16 16 15 17 17 3 2 6 8 14 26 23 32 31 24 25 39 52 58 60 61 62 63 63 63 64 65 66 66 66 66 66 66 65 65 65 66 66 66 67 67 67 67 67 67 67 68 67 68 68 68 68 69 68 67 67 67 67 66 67 68 68 67 67 68 69 68 70 70 69 69 69 69 69 69 69 69 69 68 67 66 66 65 65 66 64 64 64 62
8 11 10 5 2 3 15 15 19 15 17 18 16 4 -1 4 8 25 30 33 26 24 26 30 39 49 55 58 60 61 63 63 63 65 65 66 66 66 66 66 66 66 65 65 65 66 66 66 67 66 67 67 68 67 68 68 68 67 67 68 67 68 67 68 67 67 66 67 67 67 68 67 67 69 69 70 69 69 69 70 69 69 69 69 68 68 68 67 67 65 64 64 65 65 63 63 60
14 -2 -1 10 1 5 12 11 18 9 16 19 17 11 7 7 13 22 21 23 32 24 23 26 35 41 50 57 59 60 61 62 64 65 66 66 66 65 66 66 66 66 65 65 66 66 66 66 67 66 67 67 68 67 68 68 68 68 68 67 67 68 67 67 67 66 67 68 67 67 68 68 68 68 69 69 70 69 69 70 69 69 69 69 69 69 69 67 66 65 65 65 64 63 62 62 60
12 1 3 2 4 5 5 15 16 18 18 17 16 11 14 12 19 22 25 26 22 22 26 27 36 40 46 50 57 59 59 61 62 63 65 66 66 66 66 66 66 66 66 65 65 66 66 66 67 67 67 67 67 67 67 68 68 68 68 67 67 67 67 67 66 66 68 68 66 66 68 69 68 69 69 69 70 70 70 69 67 69 70 68 69 69 68 66 65 64 65 65 65 63 61 59 60
6 14 8 11 4 6 3 11 10 17 14 13 15 15 15 16 17 17 20 22 20 22 26 30 32 33 36 38 44 53 58 60 60 62 64 66 65 66 66 66 66 66 66 66 66 66 66 66 67 67 67 67 67 67 67 68 67 68 68 67 67 67 67 67 68 68 68 67 67 67 68 69 69 69 69 68 70 70 69 69 68 69 69 69 69 69 67 65 64 64 63 64 64 63 61 60 59
6 11 11 7 10 12 7 7 9 15 16 15 14 13 12 14 16 18 23 31 31 26 27 24 22 24 32 38 42 46 53 58 60 62 64 65 66 66 66 66 66 66 66 66 66 66 66 66 66 67 67 67 67 68 68 67 68 68 67 67 67 67 67 68 68 68 68 67 67 68 68 69 68 68 69 68 69 69 68 68 68 69 68 68 68 67 65 64 64 63 62 62 63 63 61 60 58
9 10 9 11 9 7 6 10 14 14 11 10 10 10 10 12 13 16 21 25 27 26 27 27 27 25 30 35 37 43 52 56 60 62 64 65 65 65 66 66 66 66 66 65 66 66 66 66 66 66 67 67 67 68 67 67 66 66 66 67 67 67 68 67 68 67 68 67 67 68 68 69 68 68 68 68 69 69 68 68 68 69 68 68 67 65 63 63 63 62 62 61 61 59 59 58 57
12 13 13 12 12 11 12 12 13 13 11 7 6 6 7 10 12 16 18 19 19 18 19 21 23 24 25 33 39 39 44 51 59 62 63 64 65 65 65 66 66 66 65 65 65 65 66 66 66 66 66 67 66 66 66 66 65 66 66 66 66 67 66 67 67 68 67 68 68 68 69 68 68 68 68 68 69 68 69 68 68 68 68 67 67 66 65 63 62 62 61 61 60 59 57 57 57
14 13 12 11 12 9 11 11 11 12 10 7 8 8 7 6 8 10 12 15 13 15 17 21 23 29 29 28 35 38 40 50 59 60 63 65 64 66 66 65 65 65 64 65 65 65 65 66 66 66 66 67 67 66 66 66 66 66 66 66 67 66 66 66 66 67 67 68 69 69 69 68 68 68 68 68 68 69 69 68 68 68 67 67 67 66 63 62 61 60 60 58 59 58 57 55 55
13 12 11 11 9 11 11 11 11 11 11 10 10 9 9 11 11 13 13 12 14 15 14 16 20 23 29 33 33 39 42 47 54 58 63 63 65 66 65 65 65 65 65 64 65 66 65 65 66 66 66 66 66 67 66 66 67 67 67 66 66 66 67 67 67 67 68 68 69 69 69 68 68 67 68 68 68 69 69 68 68 68 67 66 64 63 62 61 60 59 60 58 57 57 56 56 56
11 11 11 8 8 7 5 11 12 11 11 9 10 10 11 12 15 16 16 13 14 22 24 24 26 22 23 28 30 37 41 45 50 57 61 62 64 65 65 65 65 65 64 64 65 65 65 64 65 66 66 66 67 67 67 67 67 68 68 67 67 66 66 67 68 68 68 67 67 68 68 67 67 67 67 67 67 69 69 68 68 67 67 66 65 63 62 60 60 59 60 59 58 55 52 53 56
12 10 9 8 7 8 7 5 9 11 11 11 11 12 11 12 13 12 16 16 15 20 22 23 26 31 30 33 31 32 32 40 46 53 60 62 63 64 64 65 65 64 64 64 64 64 65 65 65 65 66 66 67 67 67 67 67 67 67 67 68 67 67 67 67 67 67 67 66 67 67 67 67 67 68 67 67 69 68 68 67 67 66 66 66 65 62 59 59 59 60 59 58 56 52 54 54
13 12 11 11 10 9 9 9 10 9 9 9 10 7 7 11 9 5 5 15 17 17 18 18 19 19 22 27 31 33 37 38 42 47 55 61 63 64 64 65 65 65 64 65 65 65 65 65 66 66 66 67 67 67 67 67 66 65 65 65 65 65 65 65 65 65 66 66 65 67 67 67 67 67 67 68 67 67 68 68 67 66 66 66 65 64 63 61 59 59 59 59 58 58 56 54 52
15 13 13 12 11 10 9 9 10 8 7 9 10 6 4 10 10 11 12 11 11 16 18 16 18 20 15 20 27 33 34 37 43 46 51 60 63 64 64 64 64 64 65 65 65 65 65 65 65 66 66 66 67 66 67 66 66 66 66 66 65 65 64 65 66 66 66 66 67 67 67 68 67 67 68 68 68 67 68 67 67 66 65 65 65 64 62 61 59 58 57 58 58 58 58 54 54
13 12 12 12 11 10 9 9 9 7 10 10 11 8 7 6 8 14 14 13 12 13 14 17 15 22 22 24 28 30 32 35 42 48 52 58 62 64 64 64 64 64 65 65 65 65 65 65 65 66 66 66 66 67 67 67 66 66 66 66 66 65 65 65 66 67 67 67 66 67 67 67 67 67 67 67 68 67 67 67 66 66 65 64 63 63 62 61 60 60 60 60 60 58 58 56 55
12 11 11 11 10 10 9 8 8 8 8 7 7 8 8 7 11 12 11 10 11 12 11 9 12 18 24 28 30 30 32 34 39 43 54 58 61 63 64 64 65 65 65 64 65 65 65 66 66 66 66 66 66 67 67 67 66 66 66 66 66 66 66 66 66 66 66 67 66 66 66 66 66 67 67 67 68 67 66 66 66 66 65 64 62 63 64 63 61 61 60 60 60 58 58 59 57
14 13 11 9 8 7 7 7 8 10 12 9 8 8 6 4 8 11 11 9 9 10 10 11 11 10 12 25 29 29 28 31 34 40 49 58 61 63 65 65 65 65 65 65 65 65 66 66 66 66 66 66 66 67 67 67 67 67 66 66 66 66 66 66 66 66 66 66 66 65 66 66 66 66 67 67 67 66 66 66 66 65 65 65 62 63 63 62 62 61 61 61 60 59 59 59 59
10 9 11 11 9 10 11 11 10 11 9 9 7 7 6 4 7 10 9 11 10 10 10 12 12 12 10 17 24 24 27 27 29 33 44 54 61 63 65 65 65 65 66 65 65 65 66 65 65 65 66 66 66 66 66 66 67 66 66 66 66 66 66 66 66 66 65 65 65 65 65 65 66 66 66 66 67 66 66 66 66 65 65 65 64 63 63 61 64 63 62 61 61 61 58 58 58
9 9 11 12 12 14 12 11 11 8 6 6 6 6 7 5 6 9 11 10 9 10 11 13 14 12 13 17 23 25 25 27 28 31 39 53 58 62 64 64 65 65 65 65 65 65 65 65 65 65 65 66 66 66 66 66 66 66 66 66 66 66 66 65 65 65 65 65 65 64 64 65 65 66 66 65 66 65 66 65 65 65 64 65 64 63 63 63 63 61 60 60 60 60 60 58 58
10 12 14 12 9 9 7 7 8 6 3 4 6 5 5 6 8 8 7 9 7 9 6 7 9 10 14 13 21 23 25 31 29 33 40 50 58 61 63 64 65 65 64 64 64 65 65 65 65 65 64 65 66 66 65 66 66 66 66 66 66 66 65 65 65 65 65 65 64 64 64 63 64 64 65 65 65 65 65 66 64 64 64 64 64 64 65 63 60 61 60 60 60 59 59 58 56
15 14 15 13 8 7 6 4 5 4 7 9 7 8 6 8 9 12 11 11 10 10 13 13 13 17 18 16 17 21 23 21 27 35 38 49 56 60 62 63 64 65 65 64 65 65 65 65 65 65 64 66 66 65 65 65 66 66 66 66 66 66 65 66 65 64 65 65 65 64 64 64 63 65 64 64 64 64 64 65 64 64 64 64 63 63 61 61 60 59 60 60 59 60 59 59 57
15 15 14 15 11 6 6 3 3 3 3 4 12 12 11 5 7 11 12 11 11 10 9 11 13 13 17 14 11 13 20 22 21 34 37 47 56 60 63 64 64 64 65 64 65 64 64 64 65 65 65 65 66 65 65 65 65 66 66 66 66 66 65 65 66 65 65 65 65 64 64 65 64 64 64 65 63 63 64 63 64 64 63 63 61 61 61 60 60 58 58 58 58 58 58 58 58
18 15 16 13 13 14 9 8 7 7 6 7 8 11 11 10 15 17 14 12 13 13 12 15 13 13 15 18 20 19 21 24 26 33 41 48 56 60 62 64 64 65 65 65 64 64 64 64 65 65 64 64 65 65 64 65 65 66 66 66 65 66 66 66 66 66 65 65 65 65 65 65 65 65 65 64 63 63 62 62 63 63 61 61 60 60 59 58 58 58 56 57 56 54 57 57 58
18 17 16 15 15 14 17 16 22 21 13 8 11 10 9 10 11 10 11 10 9 13 12 12 13 10 19 21 19 20 23 26 33 34 38 44 52 60 61 63 64 65 65 65 65 64 64 64 64 64 64 65 64 65 65 65 66 66 66 66 66 66 66 66 65 66 66 66 66 65 65 65 65 65 63 63 62 62 62 62 61 61 60 62 60 60 60 58 57 57 56 56 55 54 55 55 56
14 15 15 18 19 23 17 8 13 11 6 8 12 8 6 7 8 10 11 16 25 25 20 14 16 17 22 23 27 27 31 35 36 35 37 41 48 57 60 62 63 64 65 65 65 65 65 65 65 64 64 64 64 65 65 65 65 65 65 65 65 65 65 66 66 65 65 66 65 65 65 64 64 63 62 62 62 61 61 61 61 60 60 60 60 58 58 57 57 58 56 55 55 54 54 55 55
16 13 18 13 15 13 16 14 8 7 7 7 9 9 8 6 7 6 10 9 19 28 29 31 31 21 22 24 28 34 41 45 46 45 41 39 45 55 61 62 63 64 65 65 65 65 65 65 65 65 64 64 65 65 65 65 65 65 65 65 65 65 65 65 65 66 65 65 64 64 64 64 64 62 61 61 61 60 60 60 60 59 59 58 58 57 57 56 56 55 55 55 53 53 52 52 53
19 18 15 15 15 17 14 14 17 10 5 9 5 7 6 8 11 11 15 19 21 26 30 31 31 32 35 38 40 42 44 47 47 46 45 42 43 52 59 62 63 64 65 65 65 65 65 65 65 65 65 64 65 65 65 65 65 65 65 65 65 64 64 64 65 65 64 64 64 64 63 64 63 61 61 60 60 59 59 59 59 58 58 57 56 56 56 56 56 55 54 52 52 52 50 51 50
18 18 17 17 18 18 16 23 9 8 6 4 6 6 7 11 15 22 24 32 33 37 33 33 32 31 29 33 40 41 42 45 46 47 46 44 44 51 59 63 62 63 64 64 64 64 64 64 64 64 64 64 64 65 65 65 65 65 65 64 65 65 65 65 65 65 64 65 64 64 64 64 62 61 61 60 59 59 58 58 57 57 56 56 56 56 56 56 55 54 53 52 51 49 48 49 49
16 17 17 15 15 15 10 11 17 14 10 9 8 8 11 16 28 24 25 29 32 38 37 34 32 30 31 38 40 41 43 44 45 47 48 46 45 50 59 62 63 64 64 64 64 63 63 63 63 63 63 63 64 64 64 64 65 65 65 65 65 65 65 65 65 65 64 64 64 63 63 62 62 61 60 59 58 59 58 57 56 56 56 55 55 54 55 54 53 53 53 51 51 48 48 48 48